Weather History for Branson, MO

Change the Weather History Date:

Sunday, February 3, 2013

  Actual Average (KHRO) Record (KHRO)
Temperature  
Mean Temperature 44 °F 38 °F  
Max Temperature 51 °F 48 °F 79 °F (1962)
Min Temperature 37 °F 28 °F -3 °F (1996)
Degree Days  
Heating Degree Days 21 27  
Month to date heating degree days 81  
Since 1 July heating degree days 2567  
Cooling Degree Days 0 0  
Month to date cooling degree days 0  
Year to date cooling degree days 0  
Moisture  
Dew Point 23 °F    
Average Humidity 46    
Maximum Humidity 65    
Minimum Humidity 26    
Precipitation  
Precipitation 0.00 in 0.08 in 1.24 in (2012)
Month to date precipitation 0.26  
Year to date precipitation 2.82  
Snow  
Snow 0.00 in 0.20 in 7.00 in (1905)
Month to date snowfall 0.6  
Since 1 July snowfall 6.6  
Snow Depth -    
Sea Level Pressure  
Sea Level Pressure 30.13 in    
Wind  
Wind Speed 9 mph (West)    
Max Wind Speed 17 mph    
Max Gust Speed 24 mph    
Visibility 10 miles    
Events      
T = Trace of Precipitation, MM = Missing Value Source: NWS Daily Summary

Daily Weather History Graph

Daily Weather History Graph

Search for Another Location

Airport:

Trip Planner

Search our weather history database for the weather conditions in past years. The results will help you decide how hot, cold, wet, or windy it might be!

Date:

Astronomy

Feb. 03, 2013 Rise Set
Actual Time 7:12 AM CST 5:41 PM CST
Civil Twilight 6:45 AM CST 6:08 PM CST
Nautical Twilight 6:14 AM CST 6:39 PM CST
Astronomical Twilight 5:44 AM CST 7:09 PM CST
Moon 12:40 AM CST (2/3) 11:19 AM CST (2/3)
Length of Visible Light 11h 22m
Length of Day
10h 28m
Waning Gibbous, 48% of the Moon is Illuminated
Feb 3
Waning Gibbous
Feb 10
New
Feb 17
First Quarter
Feb 25
Full
Mar 4
Last Quarter

Hourly Weather History & Observations

Time (CST) Temp. Windchill Dew Point Humidity Pressure Visibility Wind Dir Wind Speed Gust Speed Precip Events Conditions
12:15 AM 41.0 °F 35.8 °F 28.4 °F 61% 30.16 in 10.0 mi West 8.1 mph - N/A   Clear
12:35 AM 41.0 °F 36.4 °F 28.4 °F 61% 30.15 in 10.0 mi WSW 6.9 mph - N/A   Clear
12:55 AM 41.0 °F 35.8 °F 28.4 °F 61% 30.15 in 10.0 mi WSW 8.1 mph - N/A   Clear
1:15 AM 41.0 °F 35.2 °F 28.4 °F 61% 30.14 in 10.0 mi WSW 9.2 mph - N/A   Clear
1:35 AM 41.0 °F 35.2 °F 28.4 °F 61% 30.14 in 10.0 mi West 9.2 mph - N/A   Clear
1:55 AM 42.8 °F 37.5 °F 26.6 °F 53% 30.15 in 10.0 mi West 9.2 mph - N/A   Clear
2:15 AM 44.6 °F 39.2 °F 26.6 °F 49% 30.16 in 10.0 mi West 10.4 mph - N/A   Clear
2:35 AM 44.6 °F 38.8 °F 26.6 °F 49% 30.15 in 10.0 mi WNW 11.5 mph 16.1 mph N/A   Clear
2:55 AM 44.6 °F 38.4 °F 26.6 °F 49% 30.16 in 10.0 mi WNW 12.7 mph 19.6 mph N/A   Clear
3:15 AM 44.6 °F 38.1 °F 26.6 °F 49% 30.15 in 10.0 mi WNW 13.8 mph 19.6 mph N/A   Clear
3:35 AM 42.8 °F 37.5 °F 26.6 °F 53% 30.16 in 10.0 mi WNW 9.2 mph 17.3 mph N/A   Clear
3:55 AM 42.8 °F 38.6 °F 26.6 °F 53% 30.15 in 10.0 mi WNW 6.9 mph - N/A   Clear
4:15 AM 41.0 °F 37.1 °F 26.6 °F 57% 30.16 in 10.0 mi WNW 5.8 mph - N/A   Clear
4:35 AM 41.0 °F 36.4 °F 28.4 °F 61% 30.16 in 10.0 mi WNW 6.9 mph - N/A   Clear
4:55 AM 41.0 °F 35.8 °F 26.6 °F 57% 30.17 in 10.0 mi NW 8.1 mph - N/A   Clear
5:15 AM 41.0 °F 34.3 °F 26.6 °F 57% 30.17 in 10.0 mi NW 11.5 mph 17.3 mph N/A   Clear
5:35 AM 41.0 °F 34.3 °F 26.6 °F 57% 30.17 in 10.0 mi NW 11.5 mph 19.6 mph N/A   Clear
6:45 AM 39.2 °F 31.6 °F 26.6 °F 61% 30.19 in 10.0 mi WNW 12.7 mph 18.4 mph N/A   Clear
7:45 AM 37.4 °F 31.4 °F 26.6 °F 65% 30.22 in 10.0 mi NW 8.1 mph 20.7 mph N/A   Clear
8:45 AM 37.4 °F 30.3 °F 24.8 °F 60% 30.25 in 10.0 mi WNW 10.4 mph 17.3 mph N/A   Clear
9:45 AM 39.2 °F 31.2 °F 23.0 °F 52% 30.26 in 10.0 mi NW 13.8 mph 20.7 mph N/A   Clear
10:57 AM 44.6 °F 37.2 °F 17.6 °F 34% 30.26 in 10.0 mi NNW 17.3 mph 24.2 mph N/A   Clear
11:51 AM 46.4 °F 40.1 °F 17.6 °F 32% 30.25 in 10.0 mi NW 15.0 mph 20.7 mph N/A   Partly Cloudy
12:45 PM 48.2 °F - 15.8 °F 27% 30.22 in 10.0 mi NNW 10.4 mph - N/A   Scattered Clouds
1:45 PM 50.0 °F - 17.6 °F 28% 30.19 in 10.0 mi West 6.9 mph - N/A   Scattered Clouds
2:58 PM 51.8 °F - 17.6 °F 26% 30.17 in 10.0 mi WNW 5.8 mph - N/A   Scattered Clouds
3:47 PM 50.0 °F - 17.6 °F 28% 30.14 in 10.0 mi North 5.8 mph - N/A   Mostly Cloudy
4:54 PM 50.0 °F - 17.6 °F 28% 30.13 in 10.0 mi WSW 4.6 mph - N/A   Mostly Cloudy
5:55 PM 44.6 °F - 23.0 °F 43% 30.10 in 10.0 mi Calm Calm - N/A   Mostly Cloudy
6:55 PM 44.6 °F 41.4 °F 19.4 °F 37% 30.09 in 10.0 mi SSE 5.8 mph - N/A   Mostly Cloudy
7:55 PM 44.6 °F 40.2 °F 19.4 °F 37% 30.08 in 10.0 mi SSE 8.1 mph - N/A   Mostly Cloudy
8:15 PM 44.6 °F 40.2 °F 19.4 °F 37% 30.08 in 10.0 mi SSE 8.1 mph - N/A   Clear
8:35 PM 44.6 °F 40.2 °F 19.4 °F 37% 30.08 in 10.0 mi SSE 8.1 mph - N/A   Clear
8:45 PM 44.6 °F 40.2 °F 19.4 °F 37% 30.07 in 10.0 mi SSE 8.1 mph - N/A   Scattered Clouds
8:55 PM 44.6 °F 40.7 °F 19.4 °F 37% 30.07 in 10.0 mi SSE 6.9 mph - N/A   Clear
9:15 PM 44.6 °F 41.4 °F 19.4 °F 37% 30.06 in 10.0 mi South 5.8 mph - N/A   Clear
9:55 PM 44.6 °F 40.7 °F 19.4 °F 37% 30.04 in 10.0 mi South 6.9 mph - N/A   Clear
10:15 PM 42.8 °F 39.3 °F 19.4 °F 39% 30.03 in 10.0 mi South 5.8 mph - N/A   Clear
10:35 PM 42.8 °F 39.3 °F 21.2 °F 42% 30.03 in 10.0 mi SSE 5.8 mph - N/A   Clear
10:55 PM 42.8 °F 40.1 °F 23.0 °F 46% 30.02 in 10.0 mi SSE 4.6 mph - N/A   Clear
11:15 PM 41.0 °F 38.0 °F 23.0 °F 49% 30.01 in 10.0 mi South 4.6 mph - N/A   Clear
11:35 PM 44.6 °F 40.7 °F 23.0 °F 43% 30.00 in 10.0 mi South 6.9 mph - N/A   Clear
11:55 PM 44.6 °F 40.2 °F 23.0 °F 43% 30.00 in 10.0 mi South 8.1 mph - N/A   Clear